Regional Weather Roundup
Issued by NWS Green Bay, WI

Home | Current Version | Previous Version | Text Only | Print | Product List | Glossary On
Versions: 1 2 3 4 5 6 7 8 9 10 11 12 13 14 15 16 17 18 19 20 21 22 23 24 25 26 27 28 29 30 31 32 33 34 35 36 37 38 39 40 41 42 43 44 45 46 47 48 49 50
000
ASUS43 KGRB 231310
RWRGRB

NORTH-CENTRAL AND NORTHEAST WISCONSIN REGIONAL WEATHER ROUNDUP
NATIONAL WEATHER SERVICE GREEN BAY WI
800 AM CDT THU OCT 23 2014

WIZ005-009-010>012-018-019-231400-
NORTH CENTRAL WISCONSIN

CITY           SKY/WX    TMP DP  RH WIND       PRES   REMARKS
IRONWOOD       CLOUDY    46  39  76 S5        29.99S
MANITOWISH WTR CLOUDY    43  40  91 S8        30.03F
ARBOR VITAE    DRIZZLE   43  41  91 S9        30.04F
EAGLE RIVER    RAIN      42  37  79 S5        30.06S
LAND O LAKES   CLOUDY    45  37  76 S5        30.06S
RHINELANDER    CLOUDY    42  40  92 S6        30.07F
PHILLIPS       DRIZZLE   44  40  88 S8        30.03S
ANTIGO         LGT RAIN  37  37  97 S8        30.10S
TOMAHAWK       CLOUDY    41  39  95 CALM      30.07S FOG
MERRILL        CLOUDY    41  41  97 S3        30.08F
$$

WIZ013-073-231400-
NORTHEAST WISCONSIN

CITY           SKY/WX    TMP DP  RH WIND       PRES   REMARKS
IRON MOUNTAIN  MOCLDY    37  35  92 SE8       30.11F FOG
MARINETTE      CLEAR     32  30  93 CALM      30.15F
OCONTO           N/A     30  30 100 CALM      30.16S VSB 3/4
$$

WIZ017-030-035>037-045-231400-
CENTRAL WISCONSIN

CITY           SKY/WX    TMP DP  RH WIND       PRES   REMARKS
MEDFORD        DRIZZLE   41  39  92 SE10      30.05F
WAUSAU         LGT RAIN  42  39  89 SE8       30.09S
MOSINEE        CLOUDY    41  41 100 S7        30.10F
MARSHFIELD     CLOUDY    44  40  85 S7        30.07F
WISC RAPIDS    CLOUDY    42  39  89 S5        30.11F
STEVENS POINT  CLOUDY    39  37  91 S7        30.11F
WAUPACA        CLOUDY    37  36  96 CALM      30.15S FOG
SHAWANO        FOG       33  32  95 CALM      30.15F VSB 1
CLINTONVILLE   PTCLDY    32  32 100 CALM      30.14F FOG
$$

WIZ038-039-048-051-231400-
FOX VALLEY

CITY           SKY/WX    TMP DP  RH WIND       PRES   REMARKS
NWS GREEN BAY  CLEAR     39  35  86 S7        30.16F
APPLETON       PTCLDY    39  36  87 S8        30.16S
OSHKOSH        PTCLDY    38  35  89 S10       30.15F
FOND DU LAC    PTCLDY    38  34  85 S9        30.16F
$$

WIZ022-050-052-231400-
EAST CENTRAL WISCONSIN

CITY           SKY/WX    TMP DP  RH WIND       PRES   REMARKS
STURGEON BAY   CLEAR     41  37  87 S8        30.18S
MANITOWOC      CLEAR     41  39  93 S8        30.19S
SHEBOYGAN      CLEAR     36  35  96 SW3       30.19S FOG
$$

LMZ563-521-522-541>543-231400-
LAKESHORE

STATION/POSITION TIME  TEMP    WIND        PRES    VSBY  WAVE
                       AIR SEA DIR/SP/G                  HT/PER
                 (UTC) (F)     (DEG/KT/KT) (MB)    (MI)  (FT/S)
SHEBOYGAN LKSHOR 1300   43 50  200/  9/ 10 1023.2S
KEWAUNEE LKSHORE 1300   44     190/  6/  7 1021.2R
TWO RIVERS CG    1200   45                 1022.6      6   2
NORTHPORT PIER   1300   44     160/  2/  5 1021.7S
N MID LAKE BUOY  1300   48 51  210/ 16/ 17 1022.2F         3/ 5
SISTER BAY LKSHO 1300          180/  9/ 11   N/A
STURGEON BAY CG  1200   42 48  220/  4     1031.0   3 1/2  1
CHAMBERS ISLAND  1300   47     170/  7/ 12 1021.7S
MENOMINEE LKSHOR 1300   47     180/ 10/ 14 1021.7F
$$



USA.gov is the U.S. government's official web portal to all federal, state and local government web resources and services.